www.pogodaiklimat.ru

Погода и климат >> Архив погоды >> Россия >> Приморский край >> Анучино


ПОГОДА в Анучино

  • Прогноз погоды в Анучино
  • Монитор погоды в Анучино

АРХИВ ПОГОДЫ в Анучино

Время (UTC), дата Ветер
(напр.,м/с)
 
Видим.   Явления Облачность Т
(С)
Тd
(С)
f
(%)
Тe
(С)
Тes
(С)
Комфортность P
(гПа)
Po
(гПа)
Тmin
(С)
Tmax
(С)
R
(мм)
R24
(мм)
S
(см)
06 16.09 С 3 50 км 3/3 600 м
[Cu med, cong]
+21.4 +9.2 46 +23 +26 комфорт 1011.7 990.1
09 16.09 С 1 50 км ясно +16.7 +7.5 55 +18 +18 1013.1 991.1 +22.8
12 16.09 ЮЗ 1 50 км ясно +9.3 +8.0 92 +9 +9 1015.9 993.3
15 16.09 ЮЗ 1 50 км ясно +6.1 +5.4 95 +5 +5 1017.7 994.8
18 16.09 ЮЗ 2 50 км 10/4 300 м
[St Cs]
+4.3 +4.0 98 +1 +1 1018.6 995.5
21 16.09 З 2 500 м туман ?/? +4.1 +4.1 100 +1 +1 1019.2 996.1 +3.4
00 17.09 ЮЗ 2 50 км {туман} 3/3 300 м
[St]
+7.0 +6.9 99 +5 +8 1019.2 996.3
03 17.09 В 1 50 км ясно +17.6 +0.2 31 +19 +32 опасность
простуды
1016.7 994.6
06 17.09 Ю 1 50 км ясно +19.9 +0.9 28 +21 +29 комфорт 1014.0 992.3
09 17.09 штиль 0 50 км ясно +14.5 +7.7 64 +14 +14 1013.1 991.0 +20.7
12 17.09 ЮЗ 2 50 км 4/0
[Ci sp]
+7.9 +6.8 93 +6 +6 1013.4 990.7
15 17.09 ЮЗ 2 50 км 8/0
[Cc]
+7.1 +6.1 93 +5 +5 1011.9 989.2
18 17.09 Ю 1 50 км 10/3 600 м
[Sc Cc]
+7.4 +6.1 91 +6 +6 1009.8 987.2
21 17.09 З 3
{14}
10 км гроза, ливневой дождь 10/10 600 м
[Cb cap]
+11.3 +7.7 78 +10 +10 1011.7 989.3 +6.3 3
00 18.09 З 4
{11}
50 км {гроза, ливн. осадки} 6/6 600 м
[Cu med, cong]
+12.3 +3.5 55 +11 +12 1013.4 991.1
03 18.09 СЗ 4
{13}
50 км 8/8 600 м
[Cu med, cong]
+12.1 +0.6 45 +10 +12 1014.3 991.9
06 18.09 З 4
{11}
50 км 8/8 600 м
[Cu med, cong]
+12.1 -3.7 33 +11 +11 1013.9 991.5
09 18.09 З 1
{16}
50 км в посл. час ливневой дождь 6/4 600 м
[Sc Ac trans]
+8.0 +1.2 62 +8 +8 1016.0 993.3 +13.2 0.0
12 18.09 ЮЗ 1 50 км {ливн. осадки} 3/3 600 м
[Sc]
+3.4 +1.7 89 +2 +2 1017.5 994.4
15 18.09 ЮЗ 2 50 км 3/0
[Ac trans]
+2.5 +1.1 90 -1 -1 1017.0 993.8
18 18.09 ЮЗ 2 50 км 10/0
[Ci sp]
+0.5 -0.3 94 -3 -3 1015.8 992.5
21 18.09 ЮЗ 1 50 км 10/10 600 м
[Sc]
+3.3 +1.4 87 +2 +2 1014.7 991.6 +0.4
00 19.09 З 3 50 км ясно +12.1 +0.1 44 +11 +15 1014.0 991.6
03 19.09 З 5-12
{12}
50 км 3/3 600 м
[Sc]
+14.7 -2.6 30 +14 +18 1013.1 990.9
06 19.09 З 4-14
{14}
50 км ясно +16.6 -3.5 25 +16 +20 1012.6 990.6
09 19.09 штиль 0
{14}
50 км ясно +13.2 -0.5 39 +13 +13 1014.0 991.7 +17.0
12 19.09 ЮВ 1 50 км ясно +5.6 +2.6 81 +4 +4 1016.9 994.0
15 19.09 ЮЗ 1 50 км ясно +3.4 +1.9 90 +2 +2 1018.2 995.1
18 19.09 ЮЗ 1 50 км ясно +1.6 +0.9 95 -0 -0 1019.3 996.0
21 19.09 ЮЗ 1 50 км ясно +0.7 -0.2 94 -1 -1 1020.9 997.5 +0.7
00 20.09 З 1 50 км ясно +7.8 +3.0 72 +7 +13 1021.3 998.4
03 20.09 Ю 1 50 км ясно +16.1 +0.9 36 +17 +30 опасность
простуды
1019.4 997.2
06 20.09 ЮЗ 1 50 км ясно +18.9 +0.7 29 +20 +27 1017.8 995.9
09 20.09 штиль 0 50 км ясно +13.0 +7.1 67 +13 +13 1019.0 996.6 +20.4
12 20.09 ЮЗ 2 50 км ясно +6.1 +4.8 91 +4 +4 1020.9 997.9
15 20.09 ЮЗ 1 50 км 1/0
[Ac trans]
+4.9 +4.1 95 +3 +3 1020.9 997.8
18 20.09 ЮВ 2 10 км слаб. ливневой дождь 10/10 600 м
[Cb cap]
+6.4 +4.9 90 +4 +4 1020.6 997.7
21 20.09 ЮЗ 1 50 км {ливн. осадки} 6/1 600 м
[Sc diur, vesp Ac trans]
+6.8 +5.4 91 +6 +6 1020.2 997.3 +4.4 0.0
00 21.09 ЮЗ 1 50 км {ливн. осадки} 3/0
[Cc]
+12.9 +9.5 80 +13 +19 1020.3 997.9
03 21.09 З 3 50 км 8/8 600 м
[Cu med, cong]
+18.6 +8.9 53 +19 +21 1019.5 997.5
06 21.09 С 3 50 км 6/6 600 м
[Cu med, cong]
+19.6 +5.2 39 +20 +22 1019.7 997.8
09 21.09 штиль 0 50 км ясно +14.3 +8.2 67 +14 +14 1021.6 999.2 +20.5
12 21.09 ЮЗ 1 50 км ясно +8.2 +6.9 92 +7 +7 1024.3 1001.4
15 21.09 ЮЗ 1 50 км ясно +5.5 +4.8 95 +4 +4 1025.3 1002.2
18 21.09 З 1 50 км ясно +5.2 +4.7 97 +4 +4 1025.6 1002.4
21 21.09 З 3 50 км 10/10 300 м
[St]
+3.9 +3.7 99 -0 -0 1026.6 1003.3 +3.8
00 22.09 ЮЗ 1 50 км {туман} 3/3 300 м
[St]
+7.8 +7.4 97 +7 +11 1026.8 1003.8
03 22.09 СВ 1 50 км 3/3 600 м
[Cu med, cong]
+17.7 +7.3 50 +19 +28 1024.5 1002.3
06 22.09 С 1 50 км 8/0
[Cc]
+17.9 +7.3 50 +19 +25 1022.8 1000.6
09 22.09 штиль 0 50 км 10/0
[Ac trans Ci sp]
+13.2 +9.2 77 +13 +13 1023.0 1000.5 +18.4
12 22.09 штиль 0 50 км 10/0
[Ac trans Ci sp]
+9.3 +8.1 92 +8 +8 1022.9 1000.1
15 22.09 Ю 1 50 км 10/0
[Ac trans Ci sp]
+7.0 +6.3 95 +6 +6 1021.3 998.4
18 22.09 ЮЗ 1 50 км 4/4 200 м
[St]
+6.4 +6.1 98 +5 +5 1019.5 996.6
21 22.09 ЮЗ 1 50 км 10/10 200 м
[St]
+6.5 +6.4 99 +5 +5 1018.4 995.5 +6.3
00 23.09 штиль 0 500 м туман ?/? +8.4 +8.4 100 +7 +7 1016.9 994.2
03 23.09 СВ 2 50 км {туман} 8/1 600 м
[Sc Ac cast]
+16.2 +6.9 54 +16 +21 1014.1 992.1

 

Местоположение метеостанции Анучино (Приморский край, Россия): широта 43.97 долгота 133.00 высота над уровнем моря 188 м.

В архиве по умолчанию представлена погода в Анучино за последнюю неделю. Архивные данные за месяц целиком и за предыдущие месяцы, начиная с января 2011 года, Вы можете получить, выбрав интересующий диапазон дат из раскрывающегося списка и нажав кнопку "Ввод!".


*Определитесь, кто Вы:
робот инопланетянин человек

Внимание! Время в таблицах - всемирное. Для получения местного времени необходимо прибавить поправку, которая равна 10 ч.

Смотрите также архив погоды в соседних городах и на ближайших метеорологических станциях:

Погода в Чугуевке (Приморский край, Россия) (67 км)
Погода в Многоудобном (Приморский край, Россия) (70 км)
Погода в Спасск-Дальнем (Приморский край, Россия) (75 км)
Погода в Тимирязевском (Приморский край, Россия) (89 км)
Погода в Лазо (Приморский край, Россия) (90 км)
Погода в Партизанске (Приморский край, Россия) (91 км)
Погода в Свиягино (Приморский край, Россия) (92 км)
Погода в Хороле (Приморский край, Россия) (95 км)
Погода в Астраханке (Приморский край, Россия) (115 км)
Погода в Лучегорске (Приморский край, Россия) (123 км)

Пояснения к столбцам:

Ветер - указаны скорость ветра в м/с - средняя за 10 мин, порывы в срок и между сроками (в фигурных скобках) и направление, откуда дует ветер: С - северный, СВ - северо-восточный, В - восточный, ЮВ - юго-восточный, Ю - южный, ЮЗ - юго-западный, З - западный, СЗ - северо-западный.
Видимость - горизонтальная дальность видимости в метрах или километрах. При видимости от 1 до 10 км при отсутствии осадков обычно наблюдается дымка, при ухудшении видимости до 1 км и менее - туман. В сухую погоду видимость может ухудшаться дымом, пылью или мглою.
Явления - указаны атмосферные явления, наблюдавшиеся в срок или в последний час перед сроком; фигурными скобками обозначены явления, наблюдавшиеся между сроками (за 1-3 часа до срока); квадратными скобками обозначены град или гололедные отложения с указанием их диаметра в мм.
Облачность - указаны через наклонную черту общая и нижняя облачность в баллах и высота нижней границы облаков в метрах; квадратными скобками обозначены формы облаков: Ci - перистые, Cs - перисто-слоистые, Cc - перисто-кучевые, Ac - высококучевые, As - высокослоистые, Sc - слоисто-кучевые, Ns - слоисто-дождевые, Cu - кучевые, Cb - кучево-дождевые. Подробнее классификацию облаков см. в Атласе облаков (PDF).
T - Температура воздуха - температура, измеренная на высоте 2 м над землей.
Td - Температура точки росы - температура, при понижении до которой содержащийся в воздухе водяной пар достигнет насыщения.
f - Относительная влажность воздуха - влажноcть воздуха, измеренная на высоте 2 м над землей.
Te - Эффективная температура - температура, которую ощущает одетый по сезону человек в тени. Характеристика душности погоды. При расчете учитывается влияние влажности воздуха и скорости ветра на теплоощущения человека.
Tes - Эффективная температура на солнце - температура, которую ощущает человек, с поправкой на солнечный нагрев. Характеристика знойности погоды. Зависит от высоты солнца над горизонтом, облачности и скорости ветра. Ночью, в пасмурную погоду, а также при ветре 12 м/с и более поправка равна нулю.
P - Атмосферное давление - приведенное к уровню моря атмосферное давление.
Po - Атмосферное давление - измеренное на уровне метеостанции атмосферное давление.
Tmin - Минимальная температура - минимум температуры воздуха на высоте 2 м над землей.
Tmax - Максимальная температура - максимум температуры воздуха на высоте 2 м над землей.
R - Количество осадков - Количество выпавших осадков за период времени, мм. При наведении курсора мыши на число - период времени, за который выпало указанное количество осадков.
R24 - Количество осадков - Количество выпавших осадков за 24 часа, мм.
S - Снежный покров - Высота снежного покрова, см. При наведении курсора мыши на число - состояние снежного покрова и степень покрытия местности в баллах.